This is the latest recevied weather packets stored in our database for station/object F1AGU-13. If no packets are shown the sender has not sent any weather packets the latest 10 day(s).
| Time | Temp. | Humidity | Pressure | Rain* | Wind** | Luminosity | Snow |
|---|---|---|---|---|---|---|---|
| 1777784117 | 10.56° C | 68% | 1017.9 hPa | 0 mm | - | - | - |
| 1777783517 | 10.56° C | 66% | 1017.8 hPa | 0 mm | - | - | - |
| 1777782917 | 10.56° C | 63% | 1017.7 hPa | 0 mm | - | - | - |
| 1777782317 | 10.56° C | 65% | 1017.7 hPa | 0 mm | - | - | - |
| 1777781717 | 10.56° C | 67% | 1017.6 hPa | 0 mm | - | - | - |
| 1777781117 | 10.56° C | 67% | 1018 hPa | 0 mm | - | - | - |
| 1777780517 | 10.56° C | 68% | 1018.2 hPa | 0 mm | - | - | - |
| 1777779917 | 10.56° C | 65% | 1018.1 hPa | 0 mm | - | - | - |
| 1777779317 | 10.56° C | 65% | 1018.1 hPa | 0 mm | - | - | - |
| 1777778717 | 10.56° C | 67% | 1018.2 hPa | 0 mm | - | - | - |
| 1777778117 | 10.56° C | 66% | 1018.1 hPa | 0 mm | - | - | - |
| 1777777517 | 10.56° C | 68% | 1018.2 hPa | 0 mm | - | - | - |
| 1777776917 | 10.56° C | 68% | 1018.3 hPa | 0 mm | - | - | - |
| 1777776317 | 10.56° C | 68% | 1018.3 hPa | 0 mm | - | - | - |
| 1777775717 | 10.56° C | 69% | 1018.5 hPa | 0 mm | - | - | - |
| 1777775117 | 10.56° C | 68% | 1018.7 hPa | 0 mm | - | - | - |
| 1777774517 | 10.56° C | 69% | 1018.8 hPa | 0 mm | - | - | - |
| 1777773917 | 10.56° C | 69% | 1018.9 hPa | 0 mm | - | - | - |
| 1777773317 | 10.56° C | 70% | 1018.8 hPa | 0 mm | - | - | - |
| 1777772717 | 10.56° C | 69% | 1018.9 hPa | 0 mm | - | - | - |
| 1777772117 | 10.56° C | 68% | 1019 hPa | 0 mm | - | - | - |
| 1777771517 | 10.56° C | 67% | 1019.1 hPa | 0 mm | - | - | - |
| 1777770917 | 10.56° C | 68% | 1019.2 hPa | 0 mm | - | - | - |
| 1777770317 | 11.11° C | 66% | 1019.2 hPa | 0 mm | - | - | - |
| 1777769717 | 11.11° C | 66% | 1019.3 hPa | 0 mm | - | - | - |
* Rain latest hour (hover to see other rain measurements)
** Current wind speed in m/s (hover to see current wind gust speed)